Shelbyville, IN

12:16 AM EST on November 17, 2019 (GMT -0500)
Shelbyville Municipal

Weather History for KGEZ - September, 2019

Change the Weather History Date:

Wednesday, September 18, 2019

  Actual Average Record
Temperature  
Mean Temperature 74 °F 65 °F  
Max Temperature 87 °F 77 °F 92 °F (2018)
Min Temperature 60 °F 52 °F 43 °F (1999)
Degree Days  
Heating Degree Days 0 3  
Month to date heating degree days 0 22  
Since 1 July heating degree days 0 28  
Cooling Degree Days 9 2  
Month to date cooling degree days 139 73  
Year to date cooling degree days 1200 879  
Growing Degree Days 22 (Base 50)    
Moisture  
Dew Point 59 °F    
Average Humidity 67    
Maximum Humidity 93    
Minimum Humidity 40    
Precipitation  
Precipitation 0.00 in 0.10 in 0.55 in (2006)
Month to date precipitation 0.52 1.93  
Year to date precipitation 31.98 32.21  
Sea Level Pressure  
Sea Level Pressure 30.08 in    
Wind  
Wind Speed 6 mph (ENE)    
Max Wind Speed 9 mph    
Max Gust Speed 15 mph    
Visibility 10 miles    
Events      
T = Trace of Precipitation, MM = Missing Value Source: NWS Daily Summary

Daily Weather History Graph

Daily Weather History Graph

Search for Another Location

Airport or City:

Astronomy

Sep. 18, 2019 Rise Set
Actual Time 7:26 AM EDT 7:47 PM EDT
Civil Twilight 6:59 AM EDT 8:14 PM EDT
Nautical Twilight 6:28 AM EDT 8:45 PM EDT
Astronomical Twilight 5:55 AM EDT 9:17 PM EDT
Moon 10:21 PM EDT (9/18) 11:28 AM EDT (9/18)
Length of Visible Light 13h 14m
Length of Day
12h 20m
Waning Gibbous, 82% of the Moon is Illuminated
Sep 18
Waning Gibbous
Sep 21
Last Quarter
Sep 28
New
Oct 5
First Quarter
Oct 13
Full

Hourly Weather History & Observations

Time (EDT) Temp. Heat Index Dew Point Humidity Pressure Visibility Wind Dir Wind Speed Gust Speed Precip Events Conditions
12:53 AM 66.9 °F - 61.0 °F 81% 30.09 in 10.0 mi ENE 9.2 mph - N/A   Clear
1:53 AM 64.9 °F - 60.1 °F 84% 30.10 in 10.0 mi ENE 6.9 mph - N/A   Clear
2:53 AM 63.0 °F - 60.1 °F 90% 30.10 in 10.0 mi ENE 5.8 mph - N/A   Clear
3:53 AM 62.1 °F - 59.0 °F 90% 30.09 in 10.0 mi ENE 5.8 mph - N/A   Clear
4:53 AM 62.1 °F - 57.9 °F 86% 30.09 in 10.0 mi ENE 5.8 mph - N/A   Clear
5:53 AM 61.0 °F - 57.9 °F 90% 30.08 in 10.0 mi ENE 5.8 mph - N/A   Clear
11:53 AM 79.0 °F - 63.0 °F 58% 30.11 in 10.0 mi East 6.9 mph - N/A   Clear
12:53 PM 82.0 °F 82.4 °F 60.1 °F 47% 30.10 in 10.0 mi ENE 5.8 mph - N/A   Clear
1:53 PM 82.9 °F 82.8 °F 59.0 °F 44% 30.11 in 10.0 mi East 9.2 mph - N/A   Clear
2:53 PM 84.9 °F 84.4 °F 59.0 °F 41% 30.09 in 10.0 mi NE 8.1 mph - N/A   Clear
3:53 PM 84.9 °F 84.2 °F 57.9 °F 40% 30.07 in 10.0 mi East 8.1 mph - N/A   Clear
4:53 PM 84.0 °F 83.3 °F 57.0 °F 40% 30.06 in 10.0 mi ENE 9.2 mph - N/A   Clear
5:53 PM 84.0 °F 83.3 °F 57.0 °F 40% 30.05 in 10.0 mi ESE 4.6 mph - N/A   Clear
6:53 PM 82.0 °F 82.1 °F 59.0 °F 45% 30.04 in 10.0 mi ENE 4.6 mph - N/A   Clear
7:53 PM 71.1 °F - 61.0 °F 70% 30.05 in 10.0 mi ENE 5.8 mph - N/A   Clear
8:53 PM 66.9 °F - 57.9 °F 73% 30.06 in 10.0 mi ENE 4.6 mph - N/A   Clear
9:53 PM 64.0 °F - 57.0 °F 78% 30.08 in 10.0 mi NE 4.6 mph - N/A   Clear
10:53 PM 63.0 °F - 57.0 °F 81% 30.08 in 10.0 mi NE 5.8 mph - N/A   Clear
11:53 PM 61.0 °F - 55.0 °F 81% 30.07 in 10.0 mi East 6.9 mph - N/A   Clear